Frederick, MD

3:53 AM EST on January 19, 2018 (GMT -0500)
Frederick Municipal

Weather History for KFDK - August, 2014

Change the Weather History Date:

Thursday, August 28, 2014

  Actual Average (KHGR) Record (KHGR)
Temperature  
Mean Temperature 71 °F -  
Max Temperature 82 °F 80 °F 91 °F (2004)
Min Temperature 60 °F 61 °F 56 °F (2010)
Cooling Degree Days 6    
Growing Degree Days 21 (Base 50)    
Moisture  
Dew Point 65 °F    
Average Humidity 81    
Maximum Humidity 100    
Minimum Humidity 42    
Precipitation  
Precipitation 0.00 in - - ()
Sea Level Pressure  
Sea Level Pressure 30.01 in    
Wind  
Wind Speed 3 mph (North)    
Max Wind Speed 13 mph    
Max Gust Speed 16 mph    
Visibility 10 miles    
Events      
Averages and records for this station are not official NWS values.
T = Trace of Precipitation, MM = Missing Value Source: NWS Daily Summary

Daily Weather History Graph

Daily Weather History Graph

Search for Another Location

Airport or City:

Trip Planner

Search our weather history database for the weather conditions in past years. The results will help you decide how hot, cold, wet, or windy it might be!

Date:

Astronomy

Aug. 28, 2014 Rise Set
Actual Time 6:34 AM EDT 7:46 PM EDT
Civil Twilight 6:06 AM EDT 8:14 PM EDT
Nautical Twilight 5:33 AM EDT 8:47 PM EDT
Astronomical Twilight 4:58 AM EDT 9:21 PM EDT
Moon 9:23 AM EDT (8/28) 9:10 PM EDT (8/28)
Length of Visible Light 14h 07m
Length of Day
13h 12m
Waxing Crescent, 8% of the Moon is Illuminated
Aug 28
Waxing Crescent
Sep 2
First Quarter
Sep 8
Full
Sep 15
Last Quarter
Sep 24
New

Hourly Weather History & Observations

Time (EDT) Temp. Heat Index Dew Point Humidity Pressure Visibility Wind Dir Wind Speed Gust Speed Precip Events Conditions
12:15 AM 71.6 °F - 71.6 °F 100% 29.96 in 10.0 mi Calm Calm - N/A   Clear
12:35 AM 71.6 °F - 71.6 °F 100% 29.96 in 7.0 mi Calm Calm - N/A   Clear
12:55 AM - - - N/A% 29.95 in 7.0 mi Calm Calm - N/A   Clear
1:15 AM 73.4 °F - 73.4 °F 100% 29.95 in 10.0 mi North 3.5 mph - N/A   Clear
1:35 AM 75.2 °F - 71.6 °F 89% 29.95 in 10.0 mi Calm Calm - N/A   Scattered Clouds
1:55 AM 77.0 °F - 71.6 °F 83% 29.94 in 10.0 mi NE 3.5 mph - N/A   Mostly Cloudy
2:15 AM 75.2 °F - 71.6 °F 89% 29.95 in 10.0 mi NNE 4.6 mph - N/A   Scattered Clouds
2:35 AM 77.0 °F - 71.6 °F 83% 29.94 in 10.0 mi NNE 5.8 mph - N/A   Clear
2:55 AM 73.4 °F - 71.6 °F 94% 29.94 in 10.0 mi Calm Calm - N/A   Clear
3:15 AM 73.4 °F - 71.6 °F 94% 29.94 in 10.0 mi Calm Calm - N/A   Clear
3:35 AM 71.6 °F - 71.6 °F 100% 29.94 in 10.0 mi Calm Calm - N/A   Clear
3:55 AM 69.8 °F - 69.8 °F 100% 29.95 in 7.0 mi Calm Calm - N/A   Clear
4:15 AM - - - N/A% 29.95 in 5.0 mi Calm Calm - N/A   Haze
4:35 AM - - - N/A% 29.95 in 7.0 mi NNW 4.6 mph - N/A   Overcast
4:55 AM 71.6 °F - 71.6 °F 100% 29.96 in 10.0 mi NNW 6.9 mph - N/A   Overcast
5:15 AM 73.4 °F - 69.8 °F 88% 29.96 in 10.0 mi NNW 6.9 mph - N/A   Overcast
5:35 AM 73.4 °F - 69.8 °F 88% 29.97 in 10.0 mi North 4.6 mph - N/A   Overcast
5:55 AM 71.6 °F - 69.8 °F 94% 29.98 in 10.0 mi Calm Calm - N/A   Overcast
6:15 AM 71.6 °F - 69.8 °F 94% 29.99 in 10.0 mi NNW 3.5 mph - N/A   Overcast
6:35 AM 71.6 °F - 69.8 °F 94% 29.99 in 10.0 mi North 3.5 mph - N/A   Mostly Cloudy
6:45 AM 71.6 °F - 69.8 °F 94% 30.00 in 10.0 mi Variable 3.5 mph - N/A   Mostly Cloudy
7:45 AM 71.6 °F - 66.2 °F 83% 30.01 in 10.0 mi North 6.9 mph - N/A   Scattered Clouds
8:45 AM 75.2 °F - 66.2 °F 73% 30.04 in - North 5.8 mph - N/A   Partly Cloudy
9:45 AM 75.2 °F - 64.4 °F 69% 30.04 in 10.0 mi NNW 9.2 mph - N/A   Scattered Clouds
10:45 AM 78.8 °F - 64.4 °F 61% 30.05 in 10.0 mi NW 5.8 mph - N/A   Scattered Clouds
11:50 AM 77.0 °F - 62.6 °F 61% 30.04 in 10.0 mi NW 8.1 mph - N/A   Scattered Clouds
12:45 PM 80.6 °F 81.8 °F 62.6 °F 54% 30.03 in 10.0 mi NNW 11.5 mph 16.1 mph N/A   Clear
1:45 PM 80.6 °F 81.8 °F 62.6 °F 54% 30.02 in 10.0 mi NW 12.7 mph - N/A   Scattered Clouds
2:45 PM 82.4 °F 82.9 °F 60.8 °F 48% 30.01 in - WNW 8.1 mph - N/A   Scattered Clouds
3:58 PM 82.4 °F 82.9 °F 60.8 °F 48% 30.00 in 10.0 mi North 9.2 mph - N/A   Clear
5:00 PM 82.4 °F 82.0 °F 57.2 °F 42% 30.02 in 10.0 mi NNW 10.4 mph - N/A   Clear
5:50 PM 80.6 °F 80.5 °F 55.4 °F 42% 30.02 in 10.0 mi NNW 9.2 mph - N/A   Clear
6:45 PM 78.8 °F - 57.2 °F 47% 30.03 in 10.0 mi NNE 8.1 mph - N/A   Clear
7:45 PM 73.4 °F - 55.4 °F 53% 30.05 in 10.0 mi NNE 3.5 mph - N/A   Clear
8:55 PM 66.2 °F - 59.0 °F 78% 30.08 in 10.0 mi Calm Calm - N/A   Clear
9:15 PM 62.6 °F - 60.8 °F 94% 30.10 in 10.0 mi Calm Calm - N/A   Clear
9:35 PM 62.6 °F - 60.8 °F 94% 30.10 in 10.0 mi Calm Calm - N/A   Clear
9:55 PM 62.6 °F - 60.8 °F 94% 30.11 in 10.0 mi Calm Calm - N/A   Clear
10:15 PM 60.8 °F - 59.0 °F 94% 30.11 in 10.0 mi Calm Calm - N/A   Clear
10:35 PM 60.8 °F - 60.8 °F 100% 30.12 in 10.0 mi Calm Calm - N/A   Clear
10:55 PM 60.8 °F - 59.0 °F 94% 30.12 in 10.0 mi North 4.6 mph - N/A   Clear
11:15 PM 62.6 °F - 57.2 °F 82% 30.12 in 10.0 mi North 4.6 mph - N/A   Clear
11:35 PM 62.6 °F - 57.2 °F 82% 30.13 in 10.0 mi NNE 3.5 mph - N/A   Clear
11:55 PM 62.6 °F - 57.2 °F 82% 30.13 in 10.0 mi NE 4.6 mph - N/A   Clear